�N����,����,�g�[���i���ԁj���x,�g�[�����x,��g�[���i���ցj���x,����
 2003/03/01, 0:00,22.1,41,19.6,12.3
 2003/03/01, 0:15,22.2,41,19.6,13
 2003/03/01, 0:30,22.1,41,19.6,13.1
 2003/03/01, 0:45,22.3,41,19.6,13.1
 2003/03/01, 1:00,22.3,41,19.8,13.2
 2003/03/01, 1:15,22.4,41,19.8,13.3
 2003/03/01, 1:30,22.1,42,19.8,13.4
 2003/03/01, 1:45,21.9,42,19.8,13.5
 2003/03/01, 2:00,21.6,42,19.5,12.6
 2003/03/01, 2:15,21.3,42,19.3,12.7
 2003/03/01, 2:30,21,42,19.1,12.8
 2003/03/01, 2:45,20.8,43,19,12.9
 2003/03/01, 3:00,20.6,43,18.9,12.9
 2003/03/01, 3:15,20.5,43,18.7,13
 2003/03/01, 3:30,20.3,44,18.6,13.1
 2003/03/01, 3:45,20.2,44,18.5,13.2
 2003/03/01, 4:00,20.1,44,18.5,13.3
 2003/03/01, 4:15,20,44,18.5,14.4
 2003/03/01, 4:30,20,45,18.3,14.4
 2003/03/01, 4:45,19.8,45,18.2,14.5
 2003/03/01, 5:00,19.8,45,18.3,14.5
 2003/03/01, 5:15,19.7,46,18.1,14.6
 2003/03/01, 5:30,19.6,46,18.1,14.6
 2003/03/01, 5:45,19.6,46,18,14.7
 2003/03/01, 6:00,20.9,48,18.1,14.4
 2003/03/01, 6:15,21.4,46,18.6,14.5
 2003/03/01, 6:30,21.8,48,19,13.9
 2003/03/01, 6:45,22.1,48,19.4,14
 2003/03/01, 7:00,22.5,49,19.5,14.1
 2003/03/01, 7:15,22.7,47,19.8,14.1
 2003/03/01, 7:30,22.5,47,19.8,14.2
 2003/03/01, 7:45,22.4,47,19.9,14.6
 2003/03/01, 8:00,22.3,47,20.1,12.4
 2003/03/01, 8:15,22.4,48,20,12
 2003/03/01, 8:30,22.4,48,20.1,12.2
 2003/03/01, 8:45,22.4,48,20.2,12.3
 2003/03/01, 9:00,22.3,48,20.2,12.7
 2003/03/01, 9:15,22.4,48,20.1,12.8
 2003/03/01, 9:30,22,47,20,12.9
 2003/03/01, 9:45,21.7,47,19.8,13
 2003/03/01,10:00,21.5,45,19.7,13.1
 2003/03/01,10:15,21.3,44,19.5,13.2
 2003/03/01,10:30,21,44,19.3,13.7
 2003/03/01,10:45,21,45,19.1,13.8
 2003/03/01,11:00,20.8,45,19,13.9
 2003/03/01,11:15,20.7,46,18.9,13.9
 2003/03/01,11:30,20.7,46,18.8,12.5
 2003/03/01,11:45,20.6,48,18.9,12.6
 2003/03/01,12:00,20.6,48,18.9,12.7
 2003/03/01,12:15,20.5,48,18.9,12.8
 2003/03/01,12:30,20.5,47,18.7,12.9
 2003/03/01,12:45,20.4,47,18.6,13.1
 2003/03/01,13:00,20.4,50,18.5,13.2
 2003/03/01,13:15,20.5,49,18.5,13.3
 2003/03/01,13:30,20.4,48,18.3,13.4
 2003/03/01,13:45,21.9,47,18.7,13.4
 2003/03/01,14:00,22,48,19.1,13.5
 2003/03/01,14:15,22.1,48,19.4,13.6
 2003/03/01,14:30,21.5,49,19.1,13.9
 2003/03/01,14:45,21.3,49,19,14.3
 2003/03/01,15:00,21.1,49,19,14.4
 2003/03/01,15:15,21,49,18.9,14.4
 2003/03/01,15:30,21,49,18.9,14.5
 2003/03/01,15:45,20.8,49,18.9,14.5
 2003/03/01,16:00,20.7,49,18.7,14.6
 2003/03/01,16:15,20.7,49,18.7,14.6
 2003/03/01,16:30,20.6,49,18.7,14.7
 2003/03/01,16:45,20.6,49,18.6,14.7
 2003/03/01,17:00,20.5,49,18.6,14.8
 2003/03/01,17:15,20.5,50,18.6,13.3
 2003/03/01,17:30,20.5,51,18.6,10.4
 2003/03/01,17:45,20.4,51,18.7,11
 2003/03/01,18:00,21.3,49,18.7,11.1
 2003/03/01,18:15,21.5,49,19.1,11.2
 2003/03/01,18:30,21.1,49,19,12.2
 2003/03/01,18:45,20.8,49,19,12.3
 2003/03/01,19:00,20.7,49,18.9,12.4
 2003/03/01,19:15,20.5,49,18.7,12.5
 2003/03/01,19:30,20.4,49,18.7,12.6
 2003/03/01,19:45,20.3,49,18.6,12.7
 2003/03/01,20:00,20.2,50,18.7,13.2
 2003/03/01,20:15,20.3,55,18.6,13.3
 2003/03/01,20:30,21.6,54,19,13.4
 2003/03/01,20:45,21.5,53,19.2,13.5
 2003/03/01,21:00,22,54,19.3,13.6
 2003/03/01,21:15,22.4,54,19.5,13.7
 2003/03/01,21:30,22.4,53,19.7,13.7
 2003/03/01,21:45,22.5,52,19.8,12.9
 2003/03/01,22:00,22.4,53,19.8,12.1
 2003/03/01,22:15,22.3,54,19.9,12.2
 2003/03/01,22:30,22.3,54,20,12.3
 2003/03/01,22:45,22.3,53,20.1,12.4
 2003/03/01,23:00,22.4,53,20.3,12.5
 2003/03/01,23:15,22.6,53,20.3,12.6
 2003/03/01,23:30,22.7,53,20.5,12.7
 2003/03/01,23:45,22.6,53,20.5,12.9
 2003/03/02, 0:00,22.6,53,20.6,13
 2003/03/02, 0:15,22.8,53,20.6,13.1
 2003/03/02, 0:30,22.7,53,20.5,13.2
 2003/03/02, 0:45,23,51,20.4,13.3
 2003/03/02, 1:00,23,51,20.4,13.4
 2003/03/02, 1:15,22.6,52,20.5,13.5
 2003/03/02, 1:30,22.6,52,20.4,13.6
 2003/03/02, 1:45,22.5,52,20.5,13.7
 2003/03/02, 2:00,22.5,52,20.4,13.8
 2003/03/02, 2:15,22.5,53,20.4,13.9
 2003/03/02, 2:30,22.6,52,20.5,14
 2003/03/02, 2:45,22.7,53,20.4,14.1
 2003/03/02, 3:00,22.7,53,20.5,14.2
 2003/03/02, 3:15,22.6,53,20.4,14.3
 2003/03/02, 3:30,22.2,52,20.3,14.2
 2003/03/02, 3:45,22,51,20.1,14.3
 2003/03/02, 4:00,21.7,51,19.9,14.4
 2003/03/02, 4:15,21.4,51,19.9,14.5
 2003/03/02, 4:30,21.2,51,19.6,14.6
 2003/03/02, 4:45,21.1,51,19.5,14.6
 2003/03/02, 5:00,21,52,19.5,14.7
 2003/03/02, 5:15,20.8,52,19.3,14.8
 2003/03/02, 5:30,20.7,51,19.2,14.9
 2003/03/02, 5:45,20.6,52,19.1,15
 2003/03/02, 6:00,20.4,52,19.1,15.1
 2003/03/02, 6:15,21.7,52,19.3,15.2
 2003/03/02, 6:30,21.6,53,19.5,15.2
 2003/03/02, 6:45,21.7,55,19.6,16
 2003/03/02, 7:00,21.7,54,19.5,12.3
 2003/03/02, 7:15,22.1,52,19.8,12.5
 2003/03/02, 7:30,22,52,19.8,12.6
 2003/03/02, 7:45,22.4,50,20,12.7
 2003/03/02, 8:00,22.3,50,20,12.8
 2003/03/02, 8:15,22.1,48,20.1,13
 2003/03/02, 8:30,22.2,47,20.1,13.1
 2003/03/02, 8:45,22.3,47,20.2,13.2
 2003/03/02, 9:00,22.3,46,20.1,13.3
 2003/03/02, 9:15,22.3,45,20.1,12.8
 2003/03/02, 9:30,22.1,43,19.9,12.9
 2003/03/02, 9:45,22,43,19.8,12.7
 2003/03/02,10:00,21.8,43,19.7,10.2
 2003/03/02,10:15,21.7,44,19.6,10.4
 2003/03/02,10:30,21.5,44,19.1,10
 2003/03/02,10:45,21.3,39,18.5,10.2
 2003/03/02,11:00,20.8,36,18,11.1
 2003/03/02,11:15,20.8,40,18.2,11.4
 2003/03/02,11:30,20.8,40,18.3,11.5
 2003/03/02,11:45,20.8,40,18.5,11.6
 2003/03/02,12:00,20.9,41,18.6,10.1
 2003/03/02,12:15,20.9,40,18.6,10.3
 2003/03/02,12:30,21,40,18.5,10.4
 2003/03/02,12:45,21,41,18.6,10.6
 2003/03/02,13:00,21,41,18.6,10.7
 2003/03/02,13:15,21.1,41,18.6,10.9
 2003/03/02,13:30,21.3,40,18.7,11
 2003/03/02,13:45,21.5,40,18.7,11.2
 2003/03/02,14:00,21.6,40,18.9,11.3
 2003/03/02,14:15,21.7,40,18.8,11.4
 2003/03/02,14:30,21.7,40,18.9,11.6
 2003/03/02,14:45,21.7,38,18.8,13.3
 2003/03/02,15:00,21.7,33,18.8,13.4
 2003/03/02,15:15,21.7,34,18.7,13.4
 2003/03/02,15:30,21.6,36,18.8,13.5
 2003/03/02,15:45,21.3,39,18.7,13.6
 2003/03/02,16:00,22,38,18.9,13.7
 2003/03/02,16:15,21.9,36,19,12.4
 2003/03/02,16:30,22.1,36,19.3,12.5
 2003/03/02,16:45,21.7,37,19.2,12.6
 2003/03/02,17:00,21.6,39,19.3,11.3
 2003/03/02,17:15,21.5,40,19.4,11.5
 2003/03/02,17:30,21.2,36,19.3,11.6
 2003/03/02,17:45,21.5,35,19.4,11.7
 2003/03/02,18:00,21.9,39,19.5,11.9
 2003/03/02,18:15,21.9,42,19.5,12
 2003/03/02,18:30,21.3,43,19.4,10.5
 2003/03/02,18:45,21,44,19.3,10.6
 2003/03/02,19:00,20.9,45,19.2,10.8
 2003/03/02,19:15,20.7,46,19.1,10.9
 2003/03/02,19:30,20.6,46,19,11.1
 2003/03/02,19:45,22.4,45,19.4,12.6
 2003/03/02,20:00,22,45,19.2,12.7
 2003/03/02,20:15,21.7,45,19.4,12.8
 2003/03/02,20:30,21.5,43,19.4,11.9
 2003/03/02,20:45,21.4,42,19.3,12
 2003/03/02,21:00,21.4,42,19.3,11.3
 2003/03/02,21:15,21.4,42,19,11.5
 2003/03/02,21:30,21.3,41,19,11.6
 2003/03/02,21:45,21.5,43,19.2,12.2
 2003/03/02,22:00,21.6,44,19.4,12.3
 2003/03/02,22:15,21.8,46,19.6,12.4
 2003/03/02,22:30,22,46,19.6,11.3
 2003/03/02,22:45,21.6,46,19.5,11.5
 2003/03/02,23:00,21.4,45,19.4,11.6
 2003/03/02,23:15,21.2,45,19.3,11.7
 2003/03/02,23:30,21,45,19.2,11.9
 2003/03/02,23:45,20.8,46,19,12
 2003/03/03, 0:00,20.7,46,19,12.1
 2003/03/03, 0:15,20.6,47,18.9,12.3
 2003/03/03, 0:30,20.5,47,18.9,12.4
 2003/03/03, 0:45,20.5,47,18.9,12.5
 2003/03/03, 1:00,20.4,48,18.9,12.7
 2003/03/03, 1:15,20.4,48,18.9,12.8
 2003/03/03, 1:30,20.3,48,18.8,12.9
 2003/03/03, 1:45,20.3,49,18.9,13
 2003/03/03, 2:00,20.2,49,18.8,13.1
 2003/03/03, 2:15,20.2,49,18.7,13.2
 2003/03/03, 2:30,20.1,49,18.8,13.4
 2003/03/03, 2:45,20.1,49,18.7,13.5
 2003/03/03, 3:00,20.1,50,18.6,13.6
 2003/03/03, 3:15,20,49,18.6,13.7
 2003/03/03, 3:30,20,49,18.7,13.8
 2003/03/03, 3:45,20,50,18.6,13.9
 2003/03/03, 4:00,20,49,18.6,14
 2003/03/03, 4:15,19.9,50,18.6,14.1
 2003/03/03, 4:30,20.3,52,18.5,14.1
 2003/03/03, 4:45,21.3,50,19,15.6
 2003/03/03, 5:00,21.3,48,19,15.7
 2003/03/03, 5:15,21.3,46,19,15.3
 2003/03/03, 5:30,21.1,47,19.2,15.3
 2003/03/03, 5:45,21.7,48,19.3,14.1
 2003/03/03, 6:00,21.8,48,19.4,14.2
 2003/03/03, 6:15,21.7,47,19.4,14.3
 2003/03/03, 6:30,23,46,19.8,13.1
 2003/03/03, 6:45,23.6,45,20.1,13.2
 2003/03/03, 7:00,23.8,46,20.4,13.3
 2003/03/03, 7:15,24.1,46,20.5,13.5
 2003/03/03, 7:30,24.5,46,20.8,11.4
 2003/03/03, 7:45,24.1,46,20.8,11.6
 2003/03/03, 8:00,23.8,47,21,11.7
 2003/03/03, 8:15,23.8,47,21,11.9
 2003/03/03, 8:30,23.5,47,20.9,12
 2003/03/03, 8:45,23.1,47,20.7,12.2
 2003/03/03, 9:00,22.8,48,20.5,12.3
 2003/03/03, 9:15,22.6,48,20.4,12.4
 2003/03/03, 9:30,22.4,48,20.3,12.6
 2003/03/03, 9:45,22.2,48,20.1,12.7
 2003/03/03,10:00,22.1,48,20,13
 2003/03/03,10:15,21.9,48,19.9,13.1
 2003/03/03,10:30,21.7,47,19.8,13.2
 2003/03/03,10:45,21.6,46,19.8,13.3
 2003/03/03,11:00,21.5,46,19.6,12.6
 2003/03/03,11:15,21.4,46,19.6,12.8
 2003/03/03,11:30,21.2,47,19.4,12.9
 2003/03/03,11:45,21.1,47,19.3,13
 2003/03/03,12:00,21,47,19.3,13.1
 2003/03/03,12:15,20.8,47,19.1,13.2
 2003/03/03,12:30,20.7,48,19.1,13.2
 2003/03/03,12:45,20.6,48,19.1,13.3
 2003/03/03,13:00,20.5,48,19.1,13.4
 2003/03/03,13:15,20.5,49,18.9,13.5
 2003/03/03,13:30,20.5,49,18.8,13.6
 2003/03/03,13:45,20.5,49,18.7,13.7
 2003/03/03,14:00,20.4,49,18.7,13.8
 2003/03/03,14:15,20.4,49,18.5,13.4
 2003/03/03,14:30,20.3,49,18.5,13.5
 2003/03/03,14:45,20.2,50,18.5,13.5
 2003/03/03,15:00,20.2,50,18.3,13.6
 2003/03/03,15:15,20.1,50,18.4,14.2
 2003/03/03,15:30,20.1,51,18.5,14.3
 2003/03/03,15:45,20.3,51,18.7,14.2
 2003/03/03,16:00,20.4,52,19,14.3
 2003/03/03,16:15,20.6,53,19,14.4
 2003/03/03,16:30,20.6,52,19,14.4
 2003/03/03,16:45,20.7,52,19,14.5
 2003/03/03,17:00,20.7,51,19,14.6
 2003/03/03,17:15,20.7,51,19,14.7
 2003/03/03,17:30,20.6,51,19.1,14.7
 2003/03/03,17:45,20.7,54,19.1,14.9
 2003/03/03,18:00,20.7,55,19.1,15.5
 2003/03/03,18:15,20.7,53,19.1,15.6
 2003/03/03,18:30,20.7,54,19,15.6
 2003/03/03,18:45,20.6,55,19,15.7
 2003/03/03,19:00,20.5,52,18.6,15.8
 2003/03/03,19:15,20.4,49,18.6,15.9
 2003/03/03,19:30,20.3,48,18.4,15.9
 2003/03/03,19:45,20.4,53,18.3,16
 2003/03/03,20:00,20.4,53,18.3,13.2
 2003/03/03,20:15,20.4,49,18.2,13.4
 2003/03/03,20:30,20.5,49,18.5,13.4
 2003/03/03,20:45,20.6,49,18.5,13.4
 2003/03/03,21:00,20.7,49,18.6,12.5
 2003/03/03,21:15,20.7,49,18.9,12.6
 2003/03/03,21:30,20.7,49,18.9,12.8
 2003/03/03,21:45,22.3,48,19.4,11.3
 2003/03/03,22:00,22.8,48,19.8,11.5
 2003/03/03,22:15,23.2,48,20.1,11.7
 2003/03/03,22:30,23.5,49,20.3,11.8
 2003/03/03,22:45,23.4,49,20.5,11.9
 2003/03/03,23:00,23.7,48,20.6,12
 2003/03/03,23:15,23.7,49,20.7,12.2
 2003/03/03,23:30,23.6,50,20.8,12.3
 2003/03/03,23:45,23.7,50,21,12.3
 2003/03/04, 0:00,23.8,49,21.2,12.4
 2003/03/04, 0:15,23.7,49,21.2,12.5
 2003/03/04, 0:30,23.7,47,21.4,12.6
 2003/03/04, 0:45,23.8,48,21.4,12.8
 2003/03/04, 1:00,23.8,48,21.5,12.9
 2003/03/04, 1:15,23.8,49,21.6,13
 2003/03/04, 1:30,23.7,49,21.6,13.1
 2003/03/04, 1:45,23.7,48,21.6,13.3
 2003/03/04, 2:00,23.9,48,21.6,13.4
 2003/03/04, 2:15,23.7,48,21.6,13.5
 2003/03/04, 2:30,23.8,47,21.6,13.6
 2003/03/04, 2:45,23.7,48,21.6,13.8
 2003/03/04, 3:00,23.7,48,21.6,13.9
 2003/03/04, 3:15,23.6,48,21.5,14
 2003/03/04, 3:30,23.1,48,21.2,14.1
 2003/03/04, 3:45,22.7,48,21.1,14.2
 2003/03/04, 4:00,22.4,48,20.8,14.3
 2003/03/04, 4:15,22.2,48,20.7,14.4
 2003/03/04, 4:30,21.9,48,20.4,14.5
 2003/03/04, 4:45,21.7,48,20.3,14.6
 2003/03/04, 5:00,21.4,49,20.1,14.7
 2003/03/04, 5:15,21.3,49,19.9,14.8
 2003/03/04, 5:30,21.2,49,19.8,16.2
 2003/03/04, 5:45,21.1,49,19.7,16.3
 2003/03/04, 6:00,22.4,48,20,16.3
 2003/03/04, 6:15,22.9,49,20.2,10.6
 2003/03/04, 6:30,23.2,48,20.5,11.1
 2003/03/04, 6:45,22.7,43,20.3,11.3
 2003/03/04, 7:00,22.6,37,19.4,11.5
 2003/03/04, 7:15,22.3,35,18.6,11.9
 2003/03/04, 7:30,22.3,33,18.4,9.6
 2003/03/04, 7:45,22.1,34,18.1,10.1
 2003/03/04, 8:00,21.6,29,18.1,10.3
 2003/03/04, 8:15,21.3,30,18.8,10.4
 2003/03/04, 8:30,20.9,30,18.8,10.6
 2003/03/04, 8:45,20.7,32,18.3,10.7
 2003/03/04, 9:00,20.2,32,17.2,11
 2003/03/04, 9:15,19.7,30,17,9.2
 2003/03/04, 9:30,19.5,32,16.8,9.3
 2003/03/04, 9:45,20.2,29,17.8,9.5
 2003/03/04,10:00,20.1,31,17.7,9.6
 2003/03/04,10:15,19.9,33,17.5,9.7
 2003/03/04,10:30,19.8,33,17.3,9.8
 2003/03/04,10:45,21.1,33,18,10
 2003/03/04,11:00,21.6,32,18.4,10.1
 2003/03/04,11:15,22.2,32,18.7,10.3
 2003/03/04,11:30,22.5,32,18.9,11
 2003/03/04,11:45,22.9,31,19.1,11.1
 2003/03/04,12:00,22.8,31,19.3,11.2
 2003/03/04,12:15,22.9,26,19.4,11.4
 2003/03/04,12:30,23,24,19.3,11.5
 2003/03/04,12:45,23.5,27,19.6,11.6
 2003/03/04,13:00,23.5,29,19.7,9.9
 2003/03/04,13:15,23.8,28,20,10.1
 2003/03/04,13:30,23.6,28,20,10.2
 2003/03/04,13:45,23.5,29,20.1,10.3
 2003/03/04,14:00,23.6,29,20,10.5
 2003/03/04,14:15,23.4,29,20.1,10.6
 2003/03/04,14:30,23.4,28,20,10.8
 2003/03/04,14:45,23.4,28,20,10.9
 2003/03/04,15:00,23.1,30,20,11.1
 2003/03/04,15:15,22.9,29,19.9,11.2
 2003/03/04,15:30,22.8,29,20.1,11.4
 2003/03/04,15:45,22.4,28,19.4,10.5
 2003/03/04,16:00,22,31,19,10.2
 2003/03/04,16:15,21.6,30,18.4,10.4
 2003/03/04,16:30,21.3,30,18.2,10.5
 2003/03/04,16:45,21,31,17.9,10.6
 2003/03/04,17:00,20.8,30,17.8,10.8
 2003/03/04,17:15,20.5,30,17.6,10.9
 2003/03/04,17:30,20.4,31,17.4,11
 2003/03/04,17:45,20.2,31,17.2,11.2
 2003/03/04,18:00,20.1,32,17.1,11.3
 2003/03/04,18:15,20.9,32,17.4,11.5
 2003/03/04,18:30,21.6,30,17.8,11.6
 2003/03/04,18:45,21.9,30,18.2,11.7
 2003/03/04,19:00,21.9,30,18.5,11.8
 2003/03/04,19:15,21.3,29,18.1,11.9
 2003/03/04,19:30,20.7,29,17.1,11.4
 2003/03/04,19:45,22.1,34,17.7,9.7
 2003/03/04,20:00,23,34,18.6,9.8
 2003/03/04,20:15,23.3,38,19.1,9.9
 2003/03/04,20:30,23.3,38,19.7,10.1
 2003/03/04,20:45,23.4,41,20,10.2
 2003/03/04,21:00,23.6,42,20.3,12
 2003/03/04,21:15,23.4,41,20.3,11.5
 2003/03/04,21:30,23.7,42,20.5,11.6
 2003/03/04,21:45,24.2,41,20.8,9.1
 2003/03/04,22:00,24.5,41,21.1,9.3
 2003/03/04,22:15,24.2,37,21.1,9.1
 2003/03/04,22:30,24,39,21.2,9.3
 2003/03/04,22:45,23.8,40,21.2,9.4
 2003/03/04,23:00,23.6,43,21.1,10.6
 2003/03/04,23:15,23.4,42,21.1,10.8
 2003/03/04,23:30,23.2,41,20.9,10.9
 2003/03/04,23:45,22.9,40,20.5,11
 2003/03/05, 0:00,22.5,38,20.2,11.2
 2003/03/05, 0:15,22.9,38,20.4,11.3
 2003/03/05, 0:30,23.1,37,20.6,11.5
 2003/03/05, 0:45,22.7,39,20.4,11.6
 2003/03/05, 1:00,22.8,40,20.4,11.7
 2003/03/05, 1:15,22.7,41,20.4,11.9
 2003/03/05, 1:30,22.7,42,20.4,12
 2003/03/05, 1:45,22.9,42,20.4,12.1
 2003/03/05, 2:00,22.8,42,20.5,12.2
 2003/03/05, 2:15,22.8,42,20.4,12.3
 2003/03/05, 2:30,22.8,43,20.4,12.5
 2003/03/05, 2:45,22.7,43,20.4,12.6
 2003/03/05, 3:00,22.8,43,20.4,12.7
 2003/03/05, 3:15,22.8,43,20.4,12.8
 2003/03/05, 3:30,22.7,43,20.4,12.9
 2003/03/05, 3:45,22.8,43,20.4,13
 2003/03/05, 4:00,22.8,43,20.4,13.1
 2003/03/05, 4:15,22.5,43,20.1,13.2
 2003/03/05, 4:30,22.1,42,19.8,13.3
 2003/03/05, 4:45,21.9,42,19.6,13.4
 2003/03/05, 5:00,21.7,42,19.4,13.5
 2003/03/05, 5:15,21.4,42,19.1,13.6
 2003/03/05, 5:30,21.3,42,19.1,13.7
 2003/03/05, 5:45,21.1,42,19,13.8
 2003/03/05, 6:00,20.9,42,18.7,13.9
 2003/03/05, 6:15,20.8,42,18.6,13.9
 2003/03/05, 6:30,20.7,42,18.6,14
 2003/03/05, 6:45,20.9,43,18.5,15
 2003/03/05, 7:00,21.6,38,18.7,9.9
 2003/03/05, 7:15,22.3,36,18.9,10.1
 2003/03/05, 7:30,23,39,19.3,10.2
 2003/03/05, 7:45,22.8,40,19.4,11.3
 2003/03/05, 8:00,23.1,38,19.6,11.5
 2003/03/05, 8:15,23,37,19.7,11.7
 2003/03/05, 8:30,22.4,39,19.4,9.9
 2003/03/05, 8:45,21.8,40,19.1,10.1
 2003/03/05, 9:00,21.4,37,18.8,10.2
 2003/03/05, 9:15,20.6,31,18.2,10.4
 2003/03/05, 9:30,21.9,35,18.8,10.5
 2003/03/05, 9:45,22.4,36,19.1,10.7
 2003/03/05,10:00,22.1,38,19.3,11.3
 2003/03/05,10:15,21.4,39,18.9,11.4
 2003/03/05,10:30,21,39,18.7,11.5
 2003/03/05,10:45,20.7,38,18.5,11.6
 2003/03/05,11:00,20.5,39,18.4,11.7
 2003/03/05,11:15,20.4,39,18.2,11.9
 2003/03/05,11:30,20.2,39,18.1,12
 2003/03/05,11:45,20.1,39,18,12.1
 2003/03/05,12:00,20,38,17.8,12.2
 2003/03/05,12:15,20,38,17.7,12.3
 2003/03/05,12:30,19.8,37,17.6,12.5
 2003/03/05,12:45,19.7,37,17.5,12.6
 2003/03/05,13:00,19.7,38,17.5,12.7
 2003/03/05,13:15,19.7,38,17.4,12.8
 2003/03/05,13:30,21.9,36,18.1,12.9
 2003/03/05,13:45,22.3,36,18.5,13
 2003/03/05,14:00,22.8,36,18.9,13.1
 2003/03/05,14:15,22.9,36,19.2,13.2
 2003/03/05,14:30,23.1,36,19.3,13.3
 2003/03/05,14:45,23.1,36,19.5,13.4
 2003/03/05,15:00,22.3,37,19.1,13.4
 2003/03/05,15:15,21.8,37,19,13.5
 2003/03/05,15:30,22.7,36,19.3,13.2
 2003/03/05,15:45,22.8,35,19.8,13.3
 2003/03/05,16:00,23.2,37,20.1,13.4
 2003/03/05,16:15,23.5,38,20.5,13.5
 2003/03/05,16:30,23.7,39,20.8,13.6
 2003/03/05,16:45,23.6,39,21,13.9
 2003/03/05,17:00,23.7,40,21.2,13.9
 2003/03/05,17:15,23.7,41,21.1,14
 2003/03/05,17:30,23.8,42,21.2,14.1
 2003/03/05,17:45,23.7,40,21.1,13.2
 2003/03/05,18:00,23.7,40,21,12.3
 2003/03/05,18:15,24.2,42,21,12.5
 2003/03/05,18:30,23.2,41,20.7,10.3
 2003/03/05,18:45,22.5,38,19.8,10.5
 2003/03/05,19:00,22,38,19.3,10.6
 2003/03/05,19:15,21.7,40,19.5,10.8
 2003/03/05,19:30,22,38,19.3,11.7
 2003/03/05,19:45,22.6,36,19.6,11.9
 2003/03/05,20:00,22.9,38,19.6,12
 2003/03/05,20:15,23,38,19.7,12.1
 2003/03/05,20:30,23.6,40,20.1,12.2
 2003/03/05,20:45,24.1,40,20.2,12.3
 2003/03/05,21:00,24.3,41,20.4,12.5
 2003/03/05,21:15,24.6,41,20.6,13.6
 2003/03/05,21:30,24,42,20.7,10.4
 2003/03/05,21:45,23.8,43,20.8,10.6
 2003/03/05,22:00,23.4,42,20.5,10.8
 2003/03/05,22:15,22.9,43,20.2,10.9
 2003/03/05,22:30,22.6,43,20,11.1
 2003/03/05,22:45,22.3,43,20,11.2
 2003/03/05,23:00,22.1,43,19.6,11.4
 2003/03/05,23:15,21.9,43,19.5,11.5
 2003/03/05,23:30,21.7,43,19.3,11.7
 2003/03/05,23:45,21.5,44,19.2,11.8
 2003/03/06, 0:00,21.4,44,19.2,12
 2003/03/06, 0:15,21.3,45,19.1,12.1
 2003/03/06, 0:30,21.2,44,19,12.3
 2003/03/06, 0:45,22.5,44,19.4,12.4
 2003/03/06, 1:00,22.8,43,19.8,12.6
 2003/03/06, 1:15,23.3,42,19.9,12.7
 2003/03/06, 1:30,23.5,42,20.2,12.8
 2003/03/06, 1:45,23.5,44,20.3,14.5
 2003/03/06, 2:00,23.6,44,20.6,14.6
 2003/03/06, 2:15,23.7,45,20.6,14.6
 2003/03/06, 2:30,23.9,45,20.7,14.7
 2003/03/06, 2:45,24,45,20.9,14.8
 2003/03/06, 3:00,24.1,45,20.9,14.8
 2003/03/06, 3:15,24.1,45,21.1,14.9
 2003/03/06, 3:30,24.3,45,21,15
 2003/03/06, 3:45,23.5,45,20.8,15.1
 2003/03/06, 4:00,22.8,45,20.4,15.2
 2003/03/06, 4:15,22.4,46,20.2,15.3
 2003/03/06, 4:30,22,46,19.9,15.4
 2003/03/06, 4:45,21.7,47,19.7,15.5
 2003/03/06, 5:00,21.4,47,19.6,15.6
 2003/03/06, 5:15,21.2,47,19.3,15.6
 2003/03/06, 5:30,21,47,19.1,16.7
 2003/03/06, 5:45,20.8,47,19,16.7
 2003/03/06, 6:00,20.7,47,19,16.8
 2003/03/06, 6:15,22.3,47,19.3,9.9
 2003/03/06, 6:30,22.6,47,19.6,10.1
 2003/03/06, 6:45,22.7,48,19.9,10.2
 2003/03/06, 7:00,22.7,42,19.9,10.4
 2003/03/06, 7:15,23.4,43,20,10.6
 2003/03/06, 7:30,23.8,44,20.2,10.8
 2003/03/06, 7:45,23.5,42,20.4,9.7
 2003/03/06, 8:00,23.6,40,20.5,9.8
 2003/03/06, 8:15,22.7,35,20.2,10
 2003/03/06, 8:30,22.2,34,20.2,10.1
 2003/03/06, 8:45,21.7,35,19.9,10.3
 2003/03/06, 9:00,22.4,36,20.2,10.4
 2003/03/06, 9:15,22.7,37,20.2,10.6
 2003/03/06, 9:30,22.2,35,20,10.7
 2003/03/06, 9:45,21.6,35,19.4,10.9
 2003/03/06,10:00,21.2,36,19.1,11
 2003/03/06,10:15,-9.9,-9.9,-9.9,-9.9
 2003/03/06,10:30,-9.9,-9.9,-9.9,-9.9
 2003/03/06,10:45,-9.9,-9.9,-9.9,-9.9
 2003/03/06,11:00,-9.9,-9.9,-9.9,-9.9
 2003/03/06,11:15,-9.9,-9.9,-9.9,-9.9
 2003/03/06,11:30,20.5,39,18.6,10
 2003/03/06,11:45,20.5,39,18.4,10.1
 2003/03/06,12:00,20.4,40,18.1,10.5
 2003/03/06,12:15,20.3,40,17.7,10
 2003/03/06,12:30,21.2,39,17.9,10.1
 2003/03/06,12:45,21.6,38,18.4,10.3
 2003/03/06,13:00,21.5,39,18.5,10.4
 2003/03/06,13:15,21.4,39,18.5,10.6
 2003/03/06,13:30,21.5,39,18.5,10.8
 2003/03/06,13:45,21.6,39,18.6,10.9
 2003/03/06,14:00,21.6,39,18.6,11.1
 2003/03/06,14:15,21.6,39,18.7,11.2
 2003/03/06,14:30,21.7,39,18.7,12.6
 2003/03/06,14:45,21.5,39,18.7,12.8
 2003/03/06,15:00,21.1,40,18.5,12.9
 2003/03/06,15:15,21.6,42,18.5,13
 2003/03/06,15:30,21.8,42,18.8,13.3
 2003/03/06,15:45,21.9,43,18.9,13.4
 2003/03/06,16:00,21.7,43,18.8,10.6
 2003/03/06,16:15,21.6,44,18.8,10.8
 2003/03/06,16:30,21.7,44,18.9,11
 2003/03/06,16:45,21.7,45,18.9,11.1
 2003/03/06,17:00,21.7,45,18.9,11.3
 2003/03/06,17:15,21.8,45,18.9,11.4
 2003/03/06,17:30,21.8,45,19,12.7
 2003/03/06,17:45,21.8,46,18.8,11.1
 2003/03/06,18:00,22,46,19.3,11.2
 2003/03/06,18:15,22.3,47,19.5,11.4
 2003/03/06,18:30,22.3,46,19.4,12.1
 2003/03/06,18:45,22.2,47,19.4,12.2
 2003/03/06,19:00,22.3,48,19.4,12.3
 2003/03/06,19:15,22,47,19.3,10.5
 2003/03/06,19:30,21.9,48,18.9,10.7
 2003/03/06,19:45,21.8,47,19,11.2
 2003/03/06,20:00,21.7,46,19.2,11.3
 2003/03/06,20:15,21.9,48,18.9,11.5
 2003/03/06,20:30,22.1,48,19.1,11.6
 2003/03/06,20:45,22.2,48,19.3,11.6
 2003/03/06,21:00,22.1,48,19.3,11.8
 2003/03/06,21:15,22.3,48,19.5,11.9
 2003/03/06,21:30,22.2,48,19.5,12
 2003/03/06,21:45,22.3,48,19.6,12.2
 2003/03/06,22:00,22.5,48,19.6,12.3
 2003/03/06,22:15,22.5,48,19.6,12.4
 2003/03/06,22:30,23.1,47,19.6,12.6
 2003/03/06,22:45,22.9,46,19.7,12.7
 2003/03/06,23:00,22.7,47,19.8,12.6
 2003/03/06,23:15,22.5,47,19.7,12.7
 2003/03/06,23:30,22,46,19.5,12.8
 2003/03/06,23:45,21.8,46,19.3,13
 2003/03/07, 0:00,21.5,48,19.1,13.1
 2003/03/07, 0:15,21.3,49,19,13.2
 2003/03/07, 0:30,21.1,48,18.9,13.3
 2003/03/07, 0:45,20.8,48,18.8,13.4
 2003/03/07, 1:00,21.3,49,18.8,14.4
 2003/03/07, 1:15,21.8,49,19.1,14.5
 2003/03/07, 1:30,21.9,49,19.3,14.6
 2003/03/07, 1:45,21.9,49,19.4,14.6
 2003/03/07, 2:00,21.8,49,19.4,14.7
 2003/03/07, 2:15,21.4,48,19.1,14.8
 2003/03/07, 2:30,21.2,48,18.9,14.9
 2003/03/07, 2:45,21,48,18.7,15
 2003/03/07, 3:00,20.8,48,18.6,15.1
 2003/03/07, 3:15,20.5,48,18.5,15.2
 2003/03/07, 3:30,20.5,48,18.5,15.3
 2003/03/07, 3:45,20.4,48,18.3,15.3
 2003/03/07, 4:00,20.4,48,18.2,15.4
 2003/03/07, 4:15,20.3,48,18.1,15.5
 2003/03/07, 4:30,20.2,48,18.1,15.6
 2003/03/07, 4:45,20,49,18,15.7
 2003/03/07, 5:00,20,49,18,16.5
 2003/03/07, 5:15,20,49,17.8,16.5
 2003/03/07, 5:30,19.8,49,17.7,16.6
 2003/03/07, 5:45,19.8,49,17.7,16.6
 2003/03/07, 6:00,19.7,49,17.6,16.7
 2003/03/07, 6:15,19.8,50,17.6,16.7
 2003/03/07, 6:30,20.7,50,17.9,12.8
 2003/03/07, 6:45,20.4,50,17.8,12
 2003/03/07, 7:00,21.8,49,18.2,12.2
 2003/03/07, 7:15,20.9,50,17.9,12.3
 2003/03/07, 7:30,20.7,51,17.6,12.4
 2003/03/07, 7:45,20.7,50,17.6,13
 2003/03/07, 8:00,21.9,49,18.5,10.8
 2003/03/07, 8:15,22.5,48,18.8,10.9
 2003/03/07, 8:30,22.5,49,19.2,11.1
 2003/03/07, 8:45,22.9,48,19.5,11.2
 2003/03/07, 9:00,22.8,49,19.5,11.5
 2003/03/07, 9:15,22.9,50,19.6,11.8
 2003/03/07, 9:30,22.4,49,19.4,11
 2003/03/07, 9:45,21.9,48,19.2,11.1
 2003/03/07,10:00,21.6,48,19,11.3
 2003/03/07,10:15,21.3,49,18.8,11.4
 2003/03/07,10:30,21.1,49,18.7,11.6
 2003/03/07,10:45,20.9,49,18.6,11.7
 2003/03/07,11:00,20.7,49,18.5,11.9
 2003/03/07,11:15,20.6,49,18.5,12
 2003/03/07,11:30,20.5,49,18.4,12.2
 2003/03/07,11:45,20.4,49,18.4,12.3
 2003/03/07,12:00,20.3,50,18.4,12.5
 2003/03/07,12:15,22.5,50,18.9,12.6
 2003/03/07,12:30,23,50,19.4,12.7
 2003/03/07,12:45,23.4,50,19.5,12.9
 2003/03/07,13:00,23.7,49,19.7,13
 2003/03/07,13:15,23.4,49,19.8,13.1
 2003/03/07,13:30,23,50,19.8,13.2
 2003/03/07,13:45,22.8,50,19.6,13.3
 2003/03/07,14:00,23,49,19.6,13.5
 2003/03/07,14:15,22.9,49,19.6,13.6
 2003/03/07,14:30,23,49,19.6,13.7
 2003/03/07,14:45,22.8,49,19.6,13.8
 2003/03/07,15:00,22.8,50,19.6,13.9
 2003/03/07,15:15,22.7,49,19.5,12.4
 2003/03/07,15:30,23.1,49,19.7,10.6
 2003/03/07,15:45,22.3,49,19.5,10.8
 2003/03/07,16:00,21.9,50,19.3,11
 2003/03/07,16:15,21.7,50,19.2,11.1
 2003/03/07,16:30,21.4,51,19.1,11.3
 2003/03/07,16:45,21.2,51,19.1,11.5
 2003/03/07,17:00,21.1,51,18.9,13.2
 2003/03/07,17:15,21,50,18.8,13.4
 2003/03/07,17:30,20.8,50,18.6,13.5
 2003/03/07,17:45,21.6,50,18.6,13.6
 2003/03/07,18:00,22.1,48,18.8,13.7
 2003/03/07,18:15,22.3,46,18.7,13.8
 2003/03/07,18:30,22.4,44,18.7,13.9
 2003/03/07,18:45,22.4,43,18.6,14
 2003/03/07,19:00,22.6,42,18.8,12.2
 2003/03/07,19:15,22.8,43,18.8,12
 2003/03/07,19:30,22.7,41,18.9,12.2
 2003/03/07,19:45,22.8,42,19,12.3
 2003/03/07,20:00,22.8,42,18.8,12.4